Location: Caltech
(34.1382°N, 118.1253°W)
Time: 04:38:23
(UTC-07:00)

Tiros 1 despin weight - All Passes

Search period start: 25 March 2017 00:00
Search period end: 04 April 2017 00:00
Orbit: 596 x 644 km, 48.2° (Epoch: 23 March)

Date Brightness Start Highest point End Pass type
(mag) Time Alt. Az. Time Alt. Az. Time Alt. Az.
25 Mar - 02:16:42 10° S 02:20:08 22° SE 02:23:32 10° E night (unlit)
25 Mar - 03:57:02 10° WSW 04:01:26 56° NW 04:05:47 10° NE visible
25 Mar - 05:40:46 10° WNW 05:43:44 17° NNW 05:46:41 10° NNE visible
25 Mar - 07:24:34 10° NNW 07:26:44 13° N 07:28:53 10° NE daylight
25 Mar - 09:05:43 10° NNW 09:09:30 27° NNE 09:13:17 10° E daylight
25 Mar - 10:46:56 10° WNW 10:51:18 61° SW 10:55:42 10° SE daylight
26 Mar - 02:32:40 10° SSW 02:36:59 47° SE 02:41:15 10° ENE visible
26 Mar - 04:14:40 10° W 04:18:39 31° NNW 04:22:38 10° NE visible
26 Mar - 05:59:00 10° NW 06:01:19 14° N 06:03:38 10° NNE visible
26 Mar - 07:41:38 10° NNW 07:44:21 16° NNE 07:47:04 10° NE daylight
26 Mar - 09:22:31 10° NW 09:26:47 45° NNE 09:31:03 10° ESE daylight
26 Mar - 11:04:24 10° WNW 11:08:12 28° SW 11:12:00 10° SSE daylight
27 Mar - 01:10:28 10° SSE 01:12:51 14° SE 01:15:13 10° E night (unlit)
27 Mar - 02:49:29 10° SW 02:53:58 82° NW 02:58:25 10° NE visible
27 Mar - 04:32:41 10° WNW 04:36:03 21° NNW 04:39:24 10° NNE visible
27 Mar - 06:16:56 10° NNW 06:18:58 13° N 06:21:00 10° NNE visible
27 Mar - 07:58:26 10° NNW 08:01:52 21° NNE 08:05:17 10° ENE daylight
27 Mar - 09:39:28 10° NW 09:43:54 89° NE 09:48:21 10° SE daylight
27 Mar - 11:23:04 10° WSW 11:24:58 12° SW 11:26:51 10° SSW daylight
28 Mar - 01:25:40 10° SSW 01:29:38 31° SE 01:33:34 10° ENE night (unlit)
28 Mar - 03:06:51 10° WSW 03:11:06 42° NNW 03:15:21 10° NE visible
28 Mar - 04:50:55 10° NW 04:53:35 15° NNW 04:56:14 10° NNE visible
28 Mar - 06:34:14 10° NNW 06:36:37 14° N 06:38:59 10° NE daylight
28 Mar - 08:15:13 10° NW 08:19:14 33° NNE 08:23:16 10° E daylight
28 Mar - 09:56:41 10° WNW 10:00:52 42° SW 10:05:04 10° SSE daylight
29 Mar - 01:42:04 10° SW 01:46:33 67° SE 01:50:59 10° ENE night (unlit)
29 Mar - 03:24:39 10° W 03:28:24 26° NNW 03:32:08 10° NNE visible
29 Mar - 05:09:04 10° NNW 05:11:12 13° N 05:13:20 10° NNE visible
29 Mar - 06:51:09 10° NNW 06:54:12 18° NNE 06:57:14 10° ENE daylight
29 Mar - 08:32:05 10° NW 08:36:27 61° NE 08:40:50 10° ESE daylight
29 Mar - 10:14:30 10° W 10:17:42 19° SW 10:20:53 10° S daylight
30 Mar - 00:18:58 10° S 00:22:19 20° SE 00:25:39 10° E night (unlit)
30 Mar - 01:59:08 10° WSW 02:03:36 60° NW 02:08:01 10° NE night (unlit)
30 Mar - 03:42:48 10° WNW 03:45:51 18° NNW 03:48:55 10° NNE visible
30 Mar - 05:26:43 10° NNW 05:28:51 13° N 05:30:59 10° NNE visible
30 Mar - 07:07:56 10° NNW 07:11:39 26° NNE 07:15:21 10° E daylight
30 Mar - 08:49:07 10° WNW 08:53:29 65° SW 08:57:53 10° SE daylight
31 Mar - 00:34:51 10° SSW 00:39:10 44° SE 00:43:25 10° ENE night (unlit)
31 Mar - 02:16:44 10° W 02:20:49 33° NNW 02:24:52 10° NE visible
31 Mar - 04:01:02 10° NW 04:03:26 14° N 04:05:50 10° NNE visible
31 Mar - 05:43:49 10° NNW 05:46:29 15° NNE 05:49:08 10° NE visible
31 Mar - 07:24:44 10° NW 07:28:57 43° NNE 07:33:10 10° ESE daylight
31 Mar - 09:06:33 10° WNW 09:10:23 30° SW 09:14:15 10° SSE daylight
31 Mar - 23:12:52 10° SSE 23:15:03 13° SE 23:17:12 10° E night (unlit)
01 Apr - 00:51:35 10° SW 00:56:08 87° NW 01:00:38 10° NE night (unlit)
01 Apr - 02:34:42 10° WNW 02:38:11 21° NNW 02:41:38 10° NNE visible
01 Apr - 04:19:00 10° NNW 04:21:05 13° N 04:23:10 10° NNE visible
01 Apr - 06:00:39 10° NNW 06:04:00 21° NNE 06:07:22 10° ENE visible
01 Apr - 07:41:39 10° NW 07:46:05 84° NE 07:50:30 10° SE daylight
01 Apr - 09:25:00 10° W 09:27:10 13° SW 09:29:19 10° SSW daylight
01 Apr - 23:27:52 10° SSW 23:31:49 29° SE 23:35:42 10° ENE night (unlit)
02 Apr - 01:08:54 10° WSW 01:13:15 45° NNW 01:17:34 10° NE night (unlit)
02 Apr - 02:52:55 10° NW 02:55:42 16° NNW 02:58:27 10° NNE visible
02 Apr - 04:36:23 10° NNW 04:38:44 14° N 04:41:05 10° NE visible
02 Apr - 06:17:25 10° NW 06:21:24 32° NNE 06:25:21 10° E daylight
02 Apr - 07:58:50 10° WNW 08:03:04 45° SW 08:07:16 10° SSE daylight
02 Apr - 23:44:12 10° SW 23:48:42 63° SE 23:53:10 10° ENE night (unlit)
03 Apr - 01:26:41 10° W 01:30:32 27° NNW 01:34:22 10° NNE night (unlit)
03 Apr - 03:11:05 10° NW 03:13:19 13° N 03:15:31 10° NNE visible
03 Apr - 04:53:19 10° NNW 04:56:19 17° NNE 04:59:18 10° ENE visible
03 Apr - 06:34:15 10° NW 06:38:37 57° NE 06:42:58 10° ESE daylight
03 Apr - 08:16:35 10° W 08:19:53 21° SW 08:23:12 10° S daylight
03 Apr - 22:21:13 10° S 22:24:29 19° SE 22:27:44 10° E night (unlit)
